Simultaneous Nadir Overpasses (SNOs) Predictions

Prediction of SNOs between METOP-B and NOAA-19 Satellite Orbit:

Table of predicted SNOs for the next 14.0 days since TLE Epoch: 3/27/2021
Index Date (METOP-B) Time (METOP-B) Lat,Lon (METOP-B) SZA (METOP-B ) Date (NOAA-19) Time (NOAA-19) Lat,Lon (NOAA-19) SZA (NOAA-19 ) Distance(km) Time Diff (sec)
1 04/05/2021 13:42:19 -80.46,-178.32 104.85 04/05/2021 13:41:17 -80.47,-178.41 104.87 2.17 62
2 04/05/2021 14:33:00 80.45, -11.09 75.13 04/05/2021 14:32:12 80.47, -11.08 75.13 1.84 48
3 04/05/2021 15:23:41 -80.45, 156.19 104.90 04/05/2021 15:23:17 -80.46, 156.22 104.89 1.88 24
4 04/05/2021 16:14:22 80.44, -36.58 75.08 04/05/2021 16:14:12 80.46, -36.45 75.10 3.42 10
5 04/05/2021 17:05:02 -80.46, 131.03 104.90 04/05/2021 17:05:17 -80.46, 130.86 104.91 3.16 15
6 04/05/2021 17:55:43 80.45, -61.74 75.08 04/05/2021 17:56:12 80.45, -61.81 75.08 1.20 29
7 04/05/2021 18:46:24 -80.45, 105.54 104.95 04/05/2021 18:47:17 -80.45, 105.50 104.93 0.83 53



Historial Predications of SNOs between METOP-B and NOAA-19
